Wind_Speed
20 18 19 21 23 27 30 30 30 31 28 25 28 29 29 35 40 43 43 43 44 46 43 45 46 43 49 41 29 27 31 32 39 43 42 44 44 45 47 50 54 57 55
26 22 22 22 22 25 25 26 31 28 27 27 24 26 28 27 33 29 36 40 44 38 40 39 36 40 44 37 29 29 31 36 38 40 42 45 43 44 47 52 54 55 49
24 29 29 24 24 27 25 25 27 26 24 23 22 22 23 20 21 24 30 38 39 35 31 33 32 42 34 31 30 26 31 35 38 42 42 42 43 46 49 52 53 50 41
22 25 26 23 22 27 25 25 25 23 20 21 20 19 18 16 23 28 27 34 34 31 32 34 29 26 36 33 35 34 38 36 40 41 41 42 43 48 52 55 54 46 31
23 26 26 19 21 29 25 24 19 17 15 17 16 16 14 21 26 24 34 27 30 32 31 19 27 27 28 30 32 33 32 36 37 39 43 43 45 51 55 55 52 35 26
29 29 28 18 25 27 24 23 19 16 14 14 14 15 15 25 21 28 21 29 42 39 29 25 21 23 26 28 32 31 31 32 36 39 45 46 50 54 56 53 37 27 16
31 30 25 23 28 23 20 19 18 17 13 13 14 16 17 23 21 20 9 7 15 23 32 27 21 23 25 26 28 30 26 30 37 45 47 50 52 55 53 42 25 16 12
28 25 24 22 23 18 17 18 17 14 12 12 15 18 20 23 22 19 15 13 10 14 21 21 23 22 25 25 17 21 29 36 43 48 50 53 55 48 40 27 14 8 6
27 22 23 20 19 14 13 15 16 13 13 14 19 21 18 18 16 13 13 16 17 17 17 22 5 9 9 17 24 31 39 42 47 50 51 49 46 32 20 14 9 5 5
19 22 19 20 14 10 13 13 15 13 14 18 18 11 19 20 27 27 20 20 12 5 6 2 5 14 22 29 34 40 42 44 45 44 40 30 21 17 12 6 4 6 3
19 18 18 14 13 11 12 13 15 15 16 12 11 10 10 11 19 21 17 11 8 7 4 11 15 22 29 36 40 41 40 39 30 27 17 16 15 14 7 2 5 4 0
19 19 14 15 10 10 14 15 10 15 22 8 4 4 3 22 25 19 13 8 3 6 12 17 22 29 35 36 31 26 20 19 15 14 14 14 13 9 2 4 4 6 5
22 20 17 11 6 10 12 12 15 7 19 11 24 36 31 23 15 9 5 0 6 13 18 20 25 28 23 18 16 14 11 10 10 11 11 9 5 1 2 4 2 5 9
25 22 13 11 10 9 12 17 5 19 17 34 37 33 27 20 11 10 5 4 8 12 16 15 18 16 10 8 7 7 7 7 8 9 6 2 1 1 2 3 9 12 9
26 17 18 14 8 10 14 11 11 20 41 40 34 32 28 23 18 15 11 9 8 7 8 7 7 8 7 7 8 9 9 9 9 6 1 3 4 4 6 5 14 15 11
22 22 19 14 10 18 15 51 54 49 45 41 38 35 34 32 28 23 17 10 8 9 14 13 15 17 16 14 14 14 14 13 9 6 5 7 7 9 9 13 19 16 19
25 23 20 16 31 61 57 48 44 43 43 42 42 41 42 46 41 24 20 29 27 24 24 24 23 20 18 17 18 18 15 13 10 8 10 11 14 12 12 20 20 20 21
27 23 19 27 65 52 49 49 48 46 44 44 42 45 49 54 55 52 48 40 33 29 27 29 28 24 22 22 24 20 20 19 16 16 15 17 17 14 17 23 22 21 21
27 41 68 66 58 54 53 51 50 47 46 43 42 45 49 56 64 67 65 53 42 35 34 30 27 24 23 26 24 18 19 22 20 21 22 20 17 14 22 23 21 20 21
71 65 61 58 57 55 53 51 47 45 44 43 42 43 48 54 58 63 65 62 50 37 33 34 29 28 28 27 29 25 19 25 22 20 24 21 16 16 24 22 21 21 22
66 62 58 58 57 56 53 49 46 45 43 39 39 42 48 54 56 57 57 57 57 52 44 39 36 35 31 30 30 30 30 22 26 23 22 22 18 17 24 23 19 21 23
60 59 58 57 56 53 50 47 44 43 40 38 38 40 46 49 51 51 51 52 55 56 56 53 47 39 33 32 31 29 28 28 26 22 21 20 19 15 21 25 20 20 20
58 58 59 56 52 49 47 43 41 40 37 37 38 40 43 44 42 43 47 51 52 53 53 54 53 48 43 35 29 27 27 25 23 23 21 22 19 16 17 23 24 22 19
58 57 55 52 49 46 43 39 38 37 36 36 37 38 38 37 37 40 44 46 47 48 50 50 52 53 49 41 35 28 23 21 23 21 21 22 23 21 15 15 21 19 19
57 55 53 48 45 42 38 36 35 34 35 35 35 34 34 35 35 37 39 41 43 45 46 48 49 50 53 48 40 34 26 21 17 18 19 20 21 20 20 17 11 17 19
55 53 49 45 41 38 35 32 31 32 33 32 31 32 32 33 33 34 36 38 40 40 41 43 45 48 51 55 52 40 31 24 20 16 15 18 20 19 18 17 16 14 12
Wind_Direction
242 255 258 261 268 273 271 270 270 272 271 268 265 263 265 261 255 254 252 247 249 250 254 266 274 278 267 285 254 260 268 278 280 281 285 289 295 298 303 309 313 320 326
243 257 267 270 278 280 280 273 268 268 269 269 277 267 260 264 259 247 242 242 244 252 259 268 267 271 277 257 254 266 280 281 280 281 283 289 293 298 305 308 317 322 328
251 256 268 271 274 278 285 280 283 265 265 266 273 281 268 263 246 234 231 240 243 246 255 257 275 267 257 261 267 279 282 277 278 282 286 287 292 299 304 310 318 324 325
252 261 274 277 275 281 285 288 290 269 258 263 274 282 267 243 217 210 219 240 240 241 250 260 260 241 271 276 258 272 278 270 283 284 283 287 294 300 305 311 316 325 317
252 268 280 267 269 278 282 288 287 270 248 257 268 275 259 237 212 200 214 231 234 233 242 276 257 280 271 272 271 271 270 275 279 280 284 291 297 300 304 312 317 323 315
260 267 276 259 251 267 281 284 284 264 244 248 256 256 240 248 211 200 234 222 225 224 249 266 280 271 267 262 266 268 275 276 277 282 285 293 296 302 307 310 321 320 314
255 266 276 259 248 265 277 281 280 270 254 253 254 249 223 242 235 221 210 191 247 248 249 271 265 255 258 257 263 268 274 277 280 281 289 293 298 300 306 311 315 302 303
257 264 265 257 245 265 275 275 282 271 249 247 248 231 225 221 221 206 222 201 266 248 247 267 248 253 265 266 272 277 278 277 281 286 290 295 300 305 311 317 309 283 303
263 262 262 243 244 276 273 275 269 262 245 234 236 234 202 208 201 191 195 193 203 252 271 242 311 323 292 279 277 276 276 282 286 290 294 299 301 305 309 311 303 269 293
249 246 245 227 251 259 261 254 251 249 245 236 231 193 178 178 190 205 187 189 171 132 263 18 332 281 274 276 277 277 281 287 293 297 298 301 305 304 302 301 242 244 302
222 222 209 210 224 238 245 255 241 244 216 184 193 213 228 165 168 137 115 89 82 41 285 272 275 277 276 275 278 286 294 296 297 297 299 300 305 310 330 266 206 213 70
198 186 189 205 208 232 252 239 227 199 157 192 67 225 150 127 94 94 98 92 179 261 272 272 274 277 279 286 296 298 299 304 306 311 311 317 326 327 318 208 215 163 128
176 178 196 172 207 215 226 201 172 134 126 108 111 98 92 97 101 108 113 78 269 262 270 281 286 288 300 313 307 306 312 311 310 322 322 330 336 302 240 202 161 135 102
174 188 166 158 168 186 201 173 143 153 138 95 96 95 91 81 73 55 31 307 284 278 280 300 298 299 311 323 324 325 324 337 334 340 324 304 191 217 162 133 152 111 111
176 163 162 159 182 202 157 102 136 141 126 109 107 91 79 68 46 32 22 8 346 334 345 355 355 21 22 21 17 8 355 343 336 344 77 133 123 119 110 143 130 107 116
160 159 150 157 192 132 129 121 117 113 113 109 98 90 76 69 54 41 39 34 43 41 49 41 41 39 36 36 26 8 2 356 8 53 95 106 100 102 107 139 107 116 108
157 151 158 171 130 121 122 124 117 114 109 104 93 84 76 71 73 81 80 68 58 58 55 50 48 47 48 39 21 18 28 40 49 81 102 105 109 110 118 120 110 107 103
146 156 157 138 130 125 123 119 117 112 107 96 92 83 77 71 70 68 69 69 67 65 63 56 48 49 49 36 29 38 39 46 68 90 99 100 102 106 123 113 111 111 106
149 133 131 128 125 125 122 118 114 111 104 99 91 81 74 70 67 66 64 64 64 63 60 58 53 53 55 48 40 53 53 54 73 88 86 89 105 113 123 116 116 121 116
136 131 127 127 125 123 121 117 115 109 100 93 87 81 74 69 66 64 63 61 62 63 65 64 62 61 58 55 52 58 68 53 59 80 84 84 101 117 124 120 119 116 115
135 131 130 128 126 123 120 117 112 105 99 93 85 77 72 69 67 66 65 63 62 63 62 59 57 55 55 53 54 54 56 59 57 68 82 87 92 117 126 123 121 112 104
133 132 130 129 126 125 120 115 111 103 98 90 81 73 71 69 67 65 64 63 62 61 58 57 54 52 52 52 51 53 55 56 57 63 73 85 89 106 131 130 123 111 103
135 133 130 130 128 123 118 114 109 102 94 88 80 74 71 69 66 65 63 62 60 57 55 54 52 50 47 47 49 52 53 56 59 61 68 77 87 94 126 135 131 124 119
134 134 133 129 125 121 117 113 106 100 93 86 80 74 71 69 66 64 62 61 58 55 52 50 46 45 47 41 44 46 50 51 58 64 69 69 77 81 95 130 134 133 134
137 135 131 128 123 119 117 111 105 99 91 86 80 77 73 68 64 62 61 59 57 54 51 48 44 42 39 43 40 39 46 52 57 60 68 75 75 70 79 86 130 144 137
137 133 130 127 124 121 116 111 105 98 93 87 83 77 72 68 65 61 59 57 56 54 51 48 44 40 36 36 38 41 41 47 55 65 70 72 73 78 77 72 79 89 151
Height
5671 5673 5672 5673 5673 5673 5674 5674 5675 5677 5680 5681 5682 5684 5685 5687 5692 5698 5706 5712 5717 5719 5722 5723 5722 5721 5722 5720 5719 5718 5719 5717 5715 5711 5707 5703 5696 5690 5682 5676 5668 5660 5652
5665 5666 5666 5666 5667 5667 5668 5667 5668 5670 5672 5674 5675 5674 5676 5678 5682 5689 5695 5701 5706 5711 5714 5714 5713 5712 5714 5712 5712 5711 5709 5708 5705 5703 5698 5693 5688 5681 5674 5666 5658 5652 5645
5659 5660 5660 5662 5662 5660 5661 5661 5662 5662 5665 5667 5667 5668 5668 5670 5673 5679 5686 5692 5697 5702 5705 5704 5703 5705 5705 5704 5704 5703 5702 5701 5698 5695 5691 5685 5679 5673 5665 5659 5652 5643 5636
5654 5655 5656 5657 5658 5656 5656 5655 5656 5656 5657 5661 5662 5662 5662 5663 5665 5671 5678 5682 5689 5694 5695 5697 5696 5697 5695 5694 5695 5695 5695 5693 5691 5687 5682 5676 5669 5663 5656 5650 5642 5636 5629
5647 5648 5649 5651 5652 5650 5650 5651 5651 5651 5651 5654 5655 5655 5656 5657 5659 5662 5671 5674 5680 5686 5688 5689 5689 5688 5688 5688 5689 5688 5687 5685 5682 5679 5674 5667 5660 5653 5647 5640 5634 5627 5622
5641 5643 5643 5646 5643 5644 5646 5646 5645 5645 5644 5647 5650 5651 5652 5649 5653 5659 5662 5667 5671 5676 5678 5681 5680 5680 5680 5680 5680 5680 5679 5676 5674 5669 5663 5655 5650 5645 5637 5630 5626 5621 5616
5635 5636 5638 5638 5638 5640 5640 5640 5640 5641 5640 5642 5644 5645 5647 5646 5650 5655 5657 5660 5665 5669 5673 5672 5674 5672 5672 5673 5673 5671 5669 5666 5663 5658 5652 5645 5640 5633 5626 5622 5617 5614 5616
5628 5630 5631 5632 5634 5635 5635 5635 5636 5636 5636 5637 5638 5639 5640 5643 5646 5647 5652 5654 5657 5664 5666 5666 5664 5665 5665 5666 5664 5662 5660 5655 5650 5646 5639 5634 5629 5623 5620 5617 5613 5612 5614
5621 5623 5625 5628 5631 5631 5630 5631 5631 5631 5631 5631 5630 5632 5636 5640 5643 5644 5648 5652 5652 5658 5657 5656 5658 5658 5660 5659 5657 5653 5650 5643 5639 5634 5629 5623 5619 5613 5611 5610 5611 5612 5613
5615 5617 5620 5624 5628 5626 5626 5627 5627 5627 5626 5623 5625 5630 5631 5636 5642 5645 5645 5647 5647 5648 5651 5653 5653 5653 5654 5651 5647 5643 5637 5631 5627 5623 5618 5614 5610 5607 5604 5604 5607 5609 5609
5608 5612 5617 5622 5622 5622 5622 5624 5625 5624 5621 5623 5625 5630 5630 5633 5636 5634 5639 5644 5646 5644 5648 5649 5647 5646 5645 5642 5636 5630 5626 5622 5616 5613 5610 5606 5603 5602 5602 5604 5605 5608 5606
5604 5610 5616 5617 5618 5619 5621 5622 5624 5623 5624 5626 5628 5629 5631 5634 5637 5642 5643 5645 5644 5640 5642 5641 5637 5637 5633 5629 5624 5621 5616 5614 5612 5609 5606 5603 5602 5602 5603 5604 5605 5605 5604
5604 5610 5611 5616 5618 5618 5620 5622 5623 5627 5630 5632 5631 5634 5637 5640 5644 5644 5643 5641 5636 5636 5635 5631 5629 5627 5622 5618 5616 5614 5613 5609 5607 5603 5600 5600 5600 5601 5602 5604 5605 5607 5608
5603 5607 5615 5617 5620 5620 5620 5624 5627 5631 5635 5638 5639 5642 5645 5647 5646 5643 5638 5633 5631 5629 5628 5622 5620 5620 5617 5615 5614 5611 5608 5605 5603 5601 5599 5599 5599 5599 5600 5601 5600 5605 5609
5602 5611 5616 5619 5621 5621 5624 5628 5627 5632 5641 5646 5649 5650 5653 5652 5643 5638 5633 5629 5626 5625 5622 5621 5621 5619 5617 5615 5612 5609 5606 5603 5601 5599 5599 5598 5597 5598 5599 5602 5602 5605 5610
5606 5613 5618 5622 5624 5627 5629 5634 5638 5643 5649 5654 5658 5660 5658 5653 5645 5638 5633 5631 5629 5624 5621 5623 5621 5618 5617 5616 5613 5610 5604 5602 5601 5598 5598 5598 5599 5598 5601 5602 5604 5608 5610
5610 5617 5621 5625 5629 5635 5638 5644 5650 5657 5660 5663 5664 5665 5662 5657 5657 5648 5638 5626 5626 5629 5627 5625 5623 5622 5620 5615 5611 5607 5603 5601 5599 5597 5599 5599 5598 5601 5602 5605 5608 5610 5612
5614 5618 5623 5630 5634 5640 5647 5652 5657 5664 5668 5670 5673 5670 5667 5661 5651 5643 5632 5633 5634 5635 5635 5629 5626 5624 5621 5618 5612 5609 5607 5603 5601 5600 5601 5602 5603 5603 5606 5608 5611 5613 5615
5617 5620 5627 5633 5643 5650 5654 5660 5665 5671 5674 5677 5677 5673 5670 5663 5654 5649 5645 5643 5642 5639 5636 5634 5632 5629 5625 5622 5620 5615 5610 5609 5605 5605 5604 5604 5606 5608 5610 5613 5615 5617 5618
5623 5627 5636 5644 5650 5657 5663 5668 5675 5678 5678 5681 5682 5681 5675 5665 5660 5655 5651 5651 5650 5647 5645 5642 5639 5637 5634 5630 5625 5619 5616 5613 5611 5609 5608 5609 5610 5612 5614 5618 5619 5620 5621
5630 5638 5645 5652 5659 5665 5671 5677 5680 5682 5684 5689 5688 5684 5677 5670 5667 5664 5665 5664 5660 5655 5650 5648 5644 5642 5639 5634 5629 5626 5622 5620 5617 5615 5615 5614 5615 5616 5619 5622 5625 5626 5626
5641 5648 5654 5662 5669 5675 5678 5682 5687 5688 5691 5693 5692 5688 5682 5679 5677 5677 5676 5672 5666 5662 5657 5653 5650 5647 5644 5640 5636 5633 5629 5626 5624 5622 5621 5620 5620 5621 5623 5626 5629 5631 5632
5651 5659 5666 5672 5677 5681 5685 5690 5692 5695 5698 5697 5695 5693 5689 5688 5689 5688 5684 5678 5674 5671 5666 5661 5658 5655 5649 5643 5640 5637 5635 5633 5631 5629 5627 5626 5626 5626 5627 5629 5633 5635 5638
5661 5669 5675 5680 5685 5689 5693 5698 5700 5702 5702 5702 5700 5698 5698 5698 5697 5694 5689 5686 5683 5680 5674 5671 5666 5660 5655 5650 5646 5642 5640 5638 5636 5634 5633 5632 5631 5631 5632 5633 5636 5638 5641
5670 5677 5683 5689 5694 5698 5702 5705 5707 5708 5708 5707 5707 5707 5706 5705 5703 5701 5698 5694 5690 5687 5683 5679 5673 5668 5664 5659 5651 5646 5644 5641 5640 5639 5637 5636 5637 5637 5637 5638 5640 5642 5644
5679 5685 5691 5697 5701 5706 5709 5713 5714 5714 5714 5715 5714 5713 5712 5711 5710 5708 5705 5701 5697 5694 5690 5686 5681 5677 5671 5664 5658 5652 5648 5645 5643 5642 5642 5642 5641 5642 5643 5644 5645 5645 5648